This is the latest recevied weather packets stored in our database for station/object KK7ISX. If no packets are shown the sender has not sent any weather packets the latest 10 day(s).
| Time | Temp. | Humidity | Pressure | Rain* | Wind** | Luminosity | Snow |
|---|---|---|---|---|---|---|---|
| 1778034073 | 23.89° C | 31% | 1008.5 hPa | 0 mm | - | 23 W/m² | - |
| 1778033771 | 23.89° C | 31% | 1008.4 hPa | 0 mm | - | 27 W/m² | - |
| 1778033468 | 23.89° C | 30% | 1008.3 hPa | 0 mm | - | 31 W/m² | - |
| 1778033165 | 23.89° C | 31% | 1008.2 hPa | 0 mm | - | 36 W/m² | - |
| 1778032863 | 24.44° C | 30% | 1008.1 hPa | 0 mm | - | 41 W/m² | - |
| 1778032560 | 24.44° C | 30% | 1008.2 hPa | 0 mm | - | 46 W/m² | - |
| 1778032257 | 24.44° C | 30% | 1008.1 hPa | 0 mm | - | 56 W/m² | - |
| 1778031954 | 24.44° C | 30% | 1008.2 hPa | 0 mm | - | 65 W/m² | - |
| 1778031649 | 25° C | 30% | 1008.1 hPa | 0 mm | - | 72 W/m² | - |
| 1778031348 | 24.44° C | 30% | 1008.1 hPa | 0 mm | - | 81 W/m² | - |
| 1778031044 | 24.44° C | 30% | 1007.9 hPa | 0 mm | - | 90 W/m² | - |
| 1778030740 | 25° C | 30% | 1008 hPa | 0 mm | - | 92 W/m² | - |
| 1778030437 | 25° C | 30% | 1008.1 hPa | 0 mm | - | 106 W/m² | - |
| 1778030136 | 25° C | 30% | 1007.8 hPa | 0 mm | - | 110 W/m² | - |
| 1778029831 | 25° C | 30% | 1008 hPa | 0 mm | - | 120 W/m² | - |
| 1778029531 | 25° C | 30% | 1007.9 hPa | 0 mm | - | 45 W/m² | - |
| 1778029227 | 25° C | 30% | 1007.8 hPa | 0 mm | - | 145 W/m² | - |
| 1778028924 | 25° C | 29% | 1007.8 hPa | 0 mm | - | 158 W/m² | - |
| 1778028619 | 25° C | 30% | 1007.8 hPa | 0 mm | - | 170 W/m² | - |
| 1778028317 | 25° C | 29% | 1007.9 hPa | 0 mm | - | 181 W/m² | - |
| 1778028014 | 25° C | 29% | 1007.7 hPa | 0 mm | - | 191 W/m² | - |
| 1778027710 | 25° C | 29% | 1007.8 hPa | 0 mm | - | 201 W/m² | - |
| 1778027406 | 25° C | 29% | 1007.9 hPa | 0 mm | - | 212 W/m² | - |
| 1778027102 | 25.56° C | 28% | 1007.8 hPa | 0 mm | - | 205 W/m² | - |
| 1778026798 | 25.56° C | 28% | 1007.9 hPa | 0 mm | - | 233 W/m² | - |
* Rain latest hour (hover to see other rain measurements)
** Current wind speed in m/s (hover to see current wind gust speed)